User: anonymous   Login
Location: Pine Mountain Observatory
(43.7910°N, 120.9377°W)
Time: 01:34:06
(UTC-07:00)
Language:

Meteor 2-19 Rocket - Orbit

View from above orbital plane
View from above orbital plane
View from above satellite
View from above satellite

Ground track
Ground track

The orbit data is extracted from the following two-line orbital elements,

1 20671U 90057B   15244.88493633  .00000031  00000-0  14228-4 0  9992
2 20671  82.5497 172.2027 0015282   0.2666  60.7682 13.84593298272521
Epoch (UTC): 01 September 2015 21:14:18
Eccentricity: 0.0015282
inclination: 82.5497°
perigee height: 936 km
apogee height: 959 km
right ascension of ascending node: 172.2027°
argument of perigee: 0.2666°
revolutions per day: 13.84593298
mean anomaly at epoch: 60.7682°
orbit number at epoch: 27252

The dashed part of the orbit path shows where the satellite is in the earth's shadow,  

DLR